Estación Meteorológica Peña el Pijo (Robertgarden) [ 12/14/19 08:52:27 CET ]

Fecha Hora Presion(HPa) Temp (°C) Humedad % Rocio (°C) Viento ( m/s) Direccion Lluvia 1Hora(mm) Lluvia 24H(mm) LLuvia Total(mm)
2019-Sep-29 01:01:47 1013.600 12.4 79 8.9         490.25
2019-Sep-29 02:01:42 1013.500 11.4 80 8.1         490.25
2019-Sep-29 03:01:44 1013.200 10.7 81 7.6         490.25
2019-Sep-29 04:01:47 1012.800 9.9 82 6.9         490.25
2019-Sep-29 05:01:49 1012.800 -20.5 83 6.7         490.25
2019-Sep-29 06:01:49 1012.700 9.2 83 6.4         490.25
2019-Sep-29 07:01:41 1012.600 8.2 84 5.7         490.25
2019-Sep-29 08:01:56 1012.500 7.9 84 5.4         490.25
2019-Sep-29 09:01:46 1012.900 8.5 85 6.1         490.25
2019-Sep-29 10:01:53 1013.300 15.8 73 11.0         490.25
2019-Sep-29 11:01:50 1013.200 21.6 56 12.4         490.25
2019-Sep-29 12:01:50 1013.300 27.4 37 11.3         490.25
2019-Sep-29 13:01:51 1013.100 30.1 25 7.7 1.9 NE     490.25
2019-Sep-29 14:02:02 1012.500 30.9 24 7.8         490.25
2019-Sep-29 15:01:49 1012.400 32.2 24 8.9         490.25
2019-Sep-29 16:01:46 1011.900 31.1 22 6.8         490.25
2019-Sep-29 17:01:52 1011.600 31.6 22 7.2         490.25
2019-Sep-29 18:01:44 1011.600 29.5 21 4.8         490.25
2019-Sep-29 19:01:37 1011.500 27.2 24 4.7         490.25
2019-Sep-29 20:01:43 1011.600 20.2 43 7.2         490.25
2019-Sep-29 21:01:57 1012.300 15.9 54 6.6         490.25
2019-Sep-29 22:01:41 1012.700 13.8 61 6.4         490.25
2019-Sep-29 23:01:48 1013.000 13.6 59 5.7         490.25

Temperatura Máxima:32°    Temperatura Mínima:-20°
Presión Máxima:1013.600 Hpa    Presión Mínima:1011.500 Hpa


Volver